Time,TemperatureF,DewpointF,PressureIn,WindDirection,WindDirectionDegrees,WindSpeedMPH,WindSpeedGustMPH,Humidity,HourlyPrecipIn,Conditions,Clouds,dailyrainin,SolarRadiationWatts/m^2,SoftwareType,DateUTC
2013-02-06 00:01:00,29.3,26.4,29.94,ENE,59,0.0,1.0,86,0.00,,,0.00,0.0,meteohub,2013-02-06 05:01:00,
2013-02-06 00:02:00,29.3,26.4,29.94,ENE,59,0.0,1.0,86,0.00,,,0.00,0.0,meteohub,2013-02-06 05:02:00,
2013-02-06 00:04:00,29.3,26.4,29.94,ENE,59,0.0,1.0,86,0.00,,,0.00,0.0,meteohub,2013-02-06 05:04:00,
2013-02-06 00:07:00,29.3,26.4,29.94,ENE,59,0.0,1.0,86,0.00,,,0.00,0.0,meteohub,2013-02-06 05:07:00,
2013-02-06 00:13:00,29.1,26.2,29.94,ENE,59,0.0,1.0,86,0.00,,,0.00,0.0,meteohub,2013-02-06 05:13:00,
2013-02-06 00:19:00,29.1,26.2,29.94,ENE,59,0.0,1.0,86,0.00,,,0.00,0.0,meteohub,2013-02-06 05:19:00,
2013-02-06 00:26:00,28.9,26.1,29.94,ENE,59,0.0,0.0,86,0.00,,,0.00,0.0,meteohub,2013-02-06 05:26:00,
2013-02-06 00:32:00,28.8,25.9,29.94,ENE,59,0.0,0.0,86,0.00,,,0.00,0.0,meteohub,2013-02-06 05:32:00,
2013-02-06 00:37:00,28.6,26.1,29.95,ENE,59,0.0,0.0,87,0.00,,,0.00,0.0,meteohub,2013-02-06 05:37:00,
2013-02-06 00:42:00,28.6,26.1,29.95,ENE,59,0.0,0.0,87,0.00,,,0.00,0.0,meteohub,2013-02-06 05:42:00,
2013-02-06 00:47:00,28.6,26.1,29.95,ENE,59,0.0,0.0,87,0.00,,,0.00,0.0,meteohub,2013-02-06 05:47:00,
2013-02-06 00:52:00,28.6,26.1,29.95,ENE,59,0.0,0.0,87,0.00,,,0.00,0.0,meteohub,2013-02-06 05:52:00,
2013-02-06 00:57:00,28.6,26.1,29.95,ENE,59,0.0,0.0,87,0.00,,,0.00,0.0,meteohub,2013-02-06 05:57:00,
2013-02-06 01:02:00,28.6,26.1,29.95,ENE,59,0.0,0.0,87,0.00,,,0.00,0.0,meteohub,2013-02-06 06:02:00,
2013-02-06 01:07:00,28.4,25.9,29.95,ENE,59,0.0,1.0,87,0.00,,,0.00,0.0,meteohub,2013-02-06 06:07:00,
2013-02-06 01:12:00,28.6,26.1,29.96,ENE,59,0.0,1.0,87,0.00,,,0.00,0.0,meteohub,2013-02-06 06:12:00,
2013-02-06 01:17:00,28.6,26.1,29.96,ENE,59,0.0,2.0,87,0.00,,,0.00,0.0,meteohub,2013-02-06 06:17:00,
2013-02-06 01:22:00,28.4,25.9,29.96,ENE,59,0.0,2.0,87,0.00,,,0.00,0.0,meteohub,2013-02-06 06:22:00,
2013-02-06 01:27:00,28.4,25.9,29.96,ENE,59,2.0,2.0,87,0.00,,,0.00,0.0,meteohub,2013-02-06 06:27:00,
2013-02-06 01:32:00,28.4,25.9,29.96,ENE,59,0.0,2.0,87,0.00,,,0.00,0.0,meteohub,2013-02-06 06:32:00,
2013-02-06 01:37:00,28.4,25.9,29.96,ENE,59,0.0,2.0,87,0.00,,,0.00,0.0,meteohub,2013-02-06 06:37:00,
2013-02-06 01:42:00,28.2,25.7,29.96,ENE,59,1.0,2.0,87,0.00,,,0.00,0.0,meteohub,2013-02-06 06:42:00,
2013-02-06 01:47:00,28.2,25.7,29.96,ENE,59,0.0,2.0,87,0.00,,,0.00,0.0,meteohub,2013-02-06 06:47:00,
2013-02-06 01:52:00,28.2,25.7,29.96,ENE,59,0.0,2.0,87,0.00,,,0.00,0.0,meteohub,2013-02-06 06:52:00,
2013-02-06 01:57:00,28.2,25.7,29.96,ENE,59,0.0,2.0,87,0.00,,,0.00,0.0,meteohub,2013-02-06 06:57:00,
2013-02-06 02:02:00,28.2,25.7,29.96,ENE,59,0.0,2.0,87,0.00,,,0.00,0.0,meteohub,2013-02-06 07:02:00,
2013-02-06 02:07:00,28.2,25.7,29.96,ENE,59,0.0,2.0,87,0.00,,,0.00,0.0,meteohub,2013-02-06 07:07:00,
2013-02-06 02:12:00,28.2,25.7,29.96,ENE,59,0.0,2.0,87,0.00,,,0.00,0.0,meteohub,2013-02-06 07:12:00,
2013-02-06 02:17:00,28.2,25.9,29.96,ENE,59,0.0,0.0,88,0.00,,,0.00,0.0,meteohub,2013-02-06 07:17:00,
2013-02-06 02:22:00,28.2,25.9,29.96,ENE,59,0.0,0.0,88,0.00,,,0.00,0.0,meteohub,2013-02-06 07:22:00,
2013-02-06 02:27:00,28.0,25.7,29.96,ENE,59,0.0,1.0,88,0.00,,,0.00,0.0,meteohub,2013-02-06 07:27:00,
2013-02-06 02:32:00,28.0,25.7,29.96,ENE,59,0.0,2.0,88,0.00,,,0.00,0.0,meteohub,2013-02-06 07:32:00,
2013-02-06 02:37:00,28.0,25.7,29.96,ENE,59,0.0,2.0,88,0.00,,,0.00,0.0,meteohub,2013-02-06 07:37:00,
2013-02-06 02:42:00,28.0,25.7,29.97,ENE,59,0.0,2.0,88,0.00,,,0.00,0.0,meteohub,2013-02-06 07:42:00,
2013-02-06 02:47:00,27.9,25.5,29.97,ENE,59,0.0,2.0,88,0.00,,,0.00,0.0,meteohub,2013-02-06 07:47:00,
2013-02-06 02:52:00,27.9,25.5,29.97,ENE,59,0.0,3.0,88,0.00,,,0.00,0.0,meteohub,2013-02-06 07:52:00,
2013-02-06 02:57:00,27.9,25.5,29.97,ENE,59,0.0,3.0,88,0.00,,,0.00,0.0,meteohub,2013-02-06 07:57:00,
2013-02-06 03:02:00,27.9,25.5,29.97,ENE,59,0.0,3.0,88,0.00,,,0.00,0.0,meteohub,2013-02-06 08:02:00,
2013-02-06 03:07:00,27.9,25.5,29.98,ENE,59,0.0,1.0,88,0.00,,,0.00,0.0,meteohub,2013-02-06 08:07:00,
2013-02-06 03:12:00,27.9,25.5,29.98,ENE,59,0.0,0.0,88,0.00,,,0.00,0.0,meteohub,2013-02-06 08:12:00,
2013-02-06 03:17:00,27.7,25.3,29.98,ENE,59,0.0,0.0,88,0.00,,,0.00,0.0,meteohub,2013-02-06 08:17:00,
2013-02-06 03:22:00,27.7,25.3,29.97,ENE,59,0.0,1.0,88,0.00,,,0.00,0.0,meteohub,2013-02-06 08:22:00,
2013-02-06 03:27:00,27.7,25.3,29.98,ENE,59,1.0,1.0,88,0.00,,,0.00,0.0,meteohub,2013-02-06 08:27:00,
2013-02-06 03:32:00,27.7,25.3,29.98,ENE,59,0.0,2.0,88,0.00,,,0.00,0.0,meteohub,2013-02-06 08:32:00,
2013-02-06 03:37:00,27.7,25.3,29.98,ENE,59,0.0,2.0,88,0.00,,,0.00,0.0,meteohub,2013-02-06 08:37:00,
2013-02-06 03:42:00,27.5,25.2,29.98,ENE,59,1.0,2.0,88,0.00,,,0.00,0.0,meteohub,2013-02-06 08:42:00,
2013-02-06 03:47:00,27.5,25.2,29.99,ENE,59,1.0,2.0,88,0.00,,,0.00,0.0,meteohub,2013-02-06 08:47:00,
2013-02-06 03:52:00,27.3,25.0,29.98,ENE,59,0.0,3.0,88,0.00,,,0.00,0.0,meteohub,2013-02-06 08:52:00,
2013-02-06 03:57:00,27.3,25.0,29.98,ENE,59,0.0,3.0,88,0.00,,,0.00,0.0,meteohub,2013-02-06 08:57:00,
2013-02-06 04:02:00,27.3,25.0,29.98,ENE,59,0.0,3.0,88,0.00,,,0.00,0.0,meteohub,2013-02-06 09:02:00,
2013-02-06 04:07:00,27.3,25.0,29.99,ENE,59,0.0,2.0,88,0.00,,,0.00,0.0,meteohub,2013-02-06 09:07:00,
2013-02-06 04:12:00,27.3,25.0,29.99,ENE,59,0.0,2.0,88,0.00,,,0.00,0.0,meteohub,2013-02-06 09:12:00,
2013-02-06 04:17:00,27.3,25.0,29.99,ENE,59,0.0,2.0,88,0.00,,,0.00,0.0,meteohub,2013-02-06 09:17:00,
2013-02-06 04:22:00,27.5,25.2,29.99,ENE,59,0.0,2.0,88,0.00,,,0.00,0.0,meteohub,2013-02-06 09:22:00,
2013-02-06 04:27:00,27.5,25.2,29.99,ENE,59,0.0,2.0,88,0.00,,,0.00,0.0,meteohub,2013-02-06 09:27:00,
2013-02-06 04:32:00,27.5,25.2,30.00,ENE,59,0.0,2.0,88,0.00,,,0.00,0.0,meteohub,2013-02-06 09:32:00,
2013-02-06 04:37:00,27.7,25.7,30.00,SE,145,0.0,2.0,89,0.00,,,0.00,0.0,meteohub,2013-02-06 09:37:00,
2013-02-06 04:42:00,27.7,25.7,30.01,SE,145,0.0,3.0,89,0.00,,,0.00,0.0,meteohub,2013-02-06 09:42:00,
2013-02-06 04:47:00,27.9,25.9,30.01,SE,145,0.0,3.0,89,0.00,,,0.00,0.0,meteohub,2013-02-06 09:47:00,
2013-02-06 04:52:00,27.9,25.9,30.01,SE,145,1.0,3.0,89,0.00,,,0.00,0.0,meteohub,2013-02-06 09:52:00,
2013-02-06 04:57:00,28.0,26.1,30.02,SE,145,1.0,3.0,89,0.00,,,0.00,0.0,meteohub,2013-02-06 09:57:00,
2013-02-06 05:02:00,28.0,25.7,30.02,SE,145,0.0,2.0,88,0.00,,,0.00,0.0,meteohub,2013-02-06 10:02:00,
2013-02-06 05:07:00,27.9,25.5,30.02,SE,145,0.0,2.0,88,0.00,,,0.00,0.0,meteohub,2013-02-06 10:07:00,
2013-02-06 05:12:00,27.9,25.5,30.02,SE,145,1.0,2.0,88,0.00,,,0.00,0.0,meteohub,2013-02-06 10:12:00,
2013-02-06 05:17:00,27.9,25.5,30.03,ESE,107,1.0,4.0,88,0.00,,,0.00,0.0,meteohub,2013-02-06 10:17:00,
2013-02-06 05:22:00,27.9,25.5,30.03,ESE,107,2.0,4.0,88,0.00,,,0.00,0.0,meteohub,2013-02-06 10:22:00,
2013-02-06 05:27:00,27.7,25.3,30.04,East,90,4.0,4.0,88,0.00,,,0.00,0.0,meteohub,2013-02-06 10:27:00,
2013-02-06 05:32:00,27.7,25.3,30.04,East,80,1.0,5.0,88,0.00,,,0.00,0.0,meteohub,2013-02-06 10:32:00,
2013-02-06 05:37:00,27.7,25.3,30.04,East,80,1.0,5.0,88,0.00,,,0.00,0.0,meteohub,2013-02-06 10:37:00,
2013-02-06 05:45:00,27.7,25.3,30.04,WNW,296,2.0,5.0,88,0.00,,,0.00,0.0,meteohub,2013-02-06 10:45:00,
2013-02-06 05:51:00,27.9,25.9,30.04,WNW,296,1.0,4.0,89,0.00,,,0.00,0.0,meteohub,2013-02-06 10:51:00,
2013-02-06 05:57:00,28.2,26.2,30.05,West,259,0.0,4.0,89,0.00,,,0.00,0.0,meteohub,2013-02-06 10:57:00,
2013-02-06 06:03:00,28.2,26.2,30.05,West,259,0.0,3.0,89,0.00,,,0.00,0.0,meteohub,2013-02-06 11:03:00,
2013-02-06 06:09:00,28.4,26.4,30.06,West,259,0.0,3.0,89,0.00,,,0.00,0.0,meteohub,2013-02-06 11:09:00,
2013-02-06 06:15:00,28.4,26.4,30.06,South,175,0.0,2.0,89,0.00,,,0.00,0.0,meteohub,2013-02-06 11:15:00,
2013-02-06 06:21:00,28.4,26.4,30.06,South,175,0.0,3.0,89,0.00,,,0.00,0.0,meteohub,2013-02-06 11:21:00,
2013-02-06 06:27:00,28.4,26.4,30.06,South,175,1.0,3.0,89,0.00,,,0.00,0.0,meteohub,2013-02-06 11:27:00,
2013-02-06 06:32:00,28.4,26.4,30.07,South,175,0.0,2.0,89,0.00,,,0.00,0.0,meteohub,2013-02-06 11:32:00,
2013-02-06 06:37:00,28.4,26.1,30.07,South,175,1.0,2.0,88,0.00,,,0.00,0.0,meteohub,2013-02-06 11:37:00,
2013-02-06 06:42:00,28.2,25.9,30.08,South,175,0.0,2.0,88,0.00,,,0.00,0.0,meteohub,2013-02-06 11:42:00,
2013-02-06 06:47:00,28.0,25.7,30.08,South,175,0.0,2.0,88,0.00,,,0.00,0.0,meteohub,2013-02-06 11:47:00,
2013-02-06 06:52:00,28.0,26.1,30.08,South,175,0.0,2.0,89,0.00,,,0.00,0.0,meteohub,2013-02-06 11:52:00,
2013-02-06 06:57:00,27.9,25.9,30.09,South,175,0.0,2.0,89,0.00,,,0.00,0.0,meteohub,2013-02-06 11:57:00,
2013-02-06 07:02:00,27.9,25.9,30.09,South,175,0.0,2.0,89,0.00,,,0.00,0.0,meteohub,2013-02-06 12:02:00,
2013-02-06 07:07:00,27.7,25.3,30.09,South,175,0.0,2.0,88,0.00,,,0.00,0.0,meteohub,2013-02-06 12:07:00,
2013-02-06 07:12:00,27.7,25.3,30.09,South,175,0.0,0.0,88,0.00,,,0.00,0.0,meteohub,2013-02-06 12:12:00,
2013-02-06 07:17:00,27.5,25.5,30.10,South,175,0.0,2.0,89,0.00,,,0.00,7.0,meteohub,2013-02-06 12:17:00,
2013-02-06 07:22:00,27.5,25.5,30.10,South,175,0.0,2.0,89,0.00,,,0.00,11.0,meteohub,2013-02-06 12:22:00,
2013-02-06 07:28:00,27.3,25.3,30.11,South,175,1.0,2.0,89,0.00,,,0.00,14.0,meteohub,2013-02-06 12:28:00,
2013-02-06 07:34:00,27.1,24.8,30.12,South,175,1.0,2.0,88,0.00,,,0.00,18.0,meteohub,2013-02-06 12:34:00,
2013-02-06 07:40:00,27.1,25.2,30.12,South,175,0.0,2.0,89,0.00,,,0.00,58.0,meteohub,2013-02-06 12:40:00,
2013-02-06 07:46:00,27.5,25.5,30.12,South,175,0.0,2.0,89,0.00,,,0.00,79.0,meteohub,2013-02-06 12:46:00,
2013-02-06 07:52:00,27.7,25.7,30.13,South,175,2.0,2.0,89,0.00,,,0.00,100.0,meteohub,2013-02-06 12:52:00,
2013-02-06 07:57:00,27.9,25.9,30.13,South,175,0.0,2.0,89,0.00,,,0.00,109.0,meteohub,2013-02-06 12:57:00,
2013-02-06 08:02:00,28.4,26.4,30.14,South,175,2.0,2.0,89,0.00,,,0.00,118.0,meteohub,2013-02-06 13:02:00,
2013-02-06 08:07:00,28.8,26.8,30.14,SSE,166,0.0,3.0,89,0.00,,,0.00,139.0,meteohub,2013-02-06 13:07:00,
2013-02-06 08:13:00,29.3,27.3,30.15,SSE,166,0.0,3.0,89,0.00,,,0.00,156.0,meteohub,2013-02-06 13:13:00,
2013-02-06 08:19:00,30.0,28.0,30.15,SSE,167,2.0,3.0,89,0.00,,,0.00,171.0,meteohub,2013-02-06 13:19:00,
2013-02-06 08:26:00,30.6,28.6,30.14,SSE,167,0.0,3.0,89,0.00,,,0.00,197.0,meteohub,2013-02-06 13:26:00,
2013-02-06 08:32:00,30.9,28.6,30.14,SSE,167,2.0,3.0,88,0.00,,,0.00,218.0,meteohub,2013-02-06 13:32:00,
2013-02-06 08:37:00,31.1,28.6,30.15,SSE,167,0.0,3.0,87,0.00,,,0.00,237.0,meteohub,2013-02-06 13:37:00,
2013-02-06 08:42:00,31.8,29.5,30.15,SSE,167,2.0,3.0,88,0.00,,,0.00,260.0,meteohub,2013-02-06 13:42:00,
2013-02-06 08:47:00,32.2,29.7,30.15,SSE,167,2.0,3.0,87,0.00,,,0.00,279.0,meteohub,2013-02-06 13:47:00,
2013-02-06 08:52:00,32.9,30.0,30.16,SSE,167,3.0,3.0,86,0.00,,,0.00,297.0,meteohub,2013-02-06 13:52:00,
2013-02-06 08:57:00,33.8,30.9,30.16,SSE,167,0.0,3.0,86,0.00,,,0.00,322.0,meteohub,2013-02-06 13:57:00,
2013-02-06 09:02:00,34.7,31.5,30.16,SSE,167,0.0,3.0,85,0.00,,,0.00,339.0,meteohub,2013-02-06 14:02:00,
2013-02-06 09:07:00,35.4,32.0,30.16,SSE,167,0.0,3.0,84,0.00,,,0.00,355.0,meteohub,2013-02-06 14:07:00,
2013-02-06 09:12:00,36.5,33.1,30.17,SSE,167,2.0,2.0,84,0.00,,,0.00,371.0,meteohub,2013-02-06 14:12:00,
2013-02-06 09:17:00,37.6,33.8,30.17,ENE,78,3.0,3.0,83,0.00,,,0.00,385.0,meteohub,2013-02-06 14:17:00,
2013-02-06 09:22:00,38.7,34.5,30.16,East,79,1.0,3.0,82,0.00,,,0.00,399.0,meteohub,2013-02-06 14:22:00,
2013-02-06 09:27:00,39.6,35.1,30.17,East,79,0.0,3.0,81,0.00,,,0.00,411.0,meteohub,2013-02-06 14:27:00,
2013-02-06 09:32:00,41.2,35.4,30.17,ENE,69,0.0,3.0,77,0.00,,,0.00,424.0,meteohub,2013-02-06 14:32:00,
2013-02-06 09:39:00,43.2,33.3,30.17,WNW,300,5.0,5.0,65,0.00,,,0.00,403.0,meteohub,2013-02-06 14:39:00,
2013-02-06 09:45:00,45.0,32.4,30.18,West,273,2.0,9.0,58,0.00,,,0.00,69.0,meteohub,2013-02-06 14:45:00,
2013-02-06 09:51:00,45.5,32.9,30.18,WNW,292,0.0,9.0,58,0.00,,,0.00,116.0,meteohub,2013-02-06 14:51:00,
2013-02-06 09:57:00,45.5,31.6,30.19,WSW,248,4.0,5.0,55,0.00,,,0.00,134.0,meteohub,2013-02-06 14:57:00,
2013-02-06 10:02:00,46.2,33.1,30.19,WSW,254,1.0,5.0,57,0.00,,,0.00,589.0,meteohub,2013-02-06 15:02:00,
2013-02-06 10:07:00,47.1,32.2,30.19,West,260,2.0,10.0,53,0.00,,,0.00,533.0,meteohub,2013-02-06 15:07:00,
2013-02-06 10:12:00,47.7,31.3,30.19,West,276,3.0,10.0,50,0.00,,,0.00,531.0,meteohub,2013-02-06 15:12:00,
2013-02-06 10:17:00,48.2,32.4,30.19,WSW,246,2.0,10.0,51,0.00,,,0.00,527.0,meteohub,2013-02-06 15:17:00,
2013-02-06 10:22:00,48.6,32.2,30.18,SSE,161,1.0,11.0,50,0.00,,,0.00,490.0,meteohub,2013-02-06 15:22:00,
2013-02-06 10:27:00,48.9,31.6,30.19,WNW,282,0.0,11.0,48,0.00,,,0.00,577.0,meteohub,2013-02-06 15:27:00,
2013-02-06 10:33:00,49.1,31.3,30.19,North,350,2.0,11.0,47,0.00,,,0.00,570.0,meteohub,2013-02-06 15:33:00,
2013-02-06 10:39:00,49.3,31.5,30.19,West,270,1.0,7.0,47,0.00,,,0.00,598.0,meteohub,2013-02-06 15:39:00,
2013-02-06 10:45:00,49.6,30.7,30.19,WNW,290,4.0,7.0,45,0.00,,,0.00,608.0,meteohub,2013-02-06 15:45:00,
2013-02-06 10:51:00,49.5,30.6,30.19,West,270,3.0,10.0,45,0.00,,,0.00,605.0,meteohub,2013-02-06 15:51:00,
2013-02-06 10:57:00,49.6,30.2,30.19,West,279,2.0,11.0,44,0.00,,,0.00,612.0,meteohub,2013-02-06 15:57:00,
2013-02-06 11:02:00,49.5,30.0,30.19,WNW,285,0.0,11.0,44,0.00,,,0.00,626.0,meteohub,2013-02-06 16:02:00,
2013-02-06 11:07:00,50.0,30.6,30.18,NW,304,4.0,7.0,44,0.00,,,0.00,631.0,meteohub,2013-02-06 16:07:00,
2013-02-06 11:12:00,50.2,30.2,30.19,SSW,192,2.0,6.0,43,0.00,,,0.00,640.0,meteohub,2013-02-06 16:12:00,
2013-02-06 11:17:00,50.4,29.8,30.19,NW,320,1.0,5.0,42,0.00,,,0.00,642.0,meteohub,2013-02-06 16:17:00,
2013-02-06 11:22:00,50.5,30.6,30.18,ENE,70,2.0,5.0,43,0.00,,,0.00,642.0,meteohub,2013-02-06 16:22:00,
2013-02-06 11:28:00,50.7,30.7,30.18,NE,43,4.0,5.0,43,0.00,,,0.00,649.0,meteohub,2013-02-06 16:28:00,
2013-02-06 11:34:00,51.3,31.6,30.18,NNW,334,5.0,5.0,44,0.00,,,0.00,652.0,meteohub,2013-02-06 16:34:00,
2013-02-06 11:40:00,51.4,31.3,30.19,SW,236,0.0,6.0,43,0.00,,,0.00,659.0,meteohub,2013-02-06 16:40:00,
2013-02-06 11:46:00,52.0,30.2,30.19,East,97,0.0,6.0,40,0.00,,,0.00,668.0,meteohub,2013-02-06 16:46:00,
2013-02-06 11:52:00,52.0,31.8,30.19,East,90,5.0,6.0,43,0.00,,,0.00,671.0,meteohub,2013-02-06 16:52:00,
2013-02-06 11:57:00,52.3,30.4,30.19,West,277,4.0,6.0,40,0.00,,,0.00,677.0,meteohub,2013-02-06 16:57:00,
2013-02-06 12:02:00,52.5,30.6,30.19,West,265,1.0,6.0,40,0.00,,,0.00,680.0,meteohub,2013-02-06 17:02:00,
2013-02-06 12:07:00,52.5,31.3,30.19,NNW,333,2.0,7.0,41,0.00,,,0.00,670.0,meteohub,2013-02-06 17:07:00,
2013-02-06 12:12:00,52.7,30.2,30.19,NNW,329,2.0,9.0,39,0.00,,,0.00,671.0,meteohub,2013-02-06 17:12:00,
2013-02-06 12:19:00,53.1,30.6,30.18,West,272,2.0,9.0,39,0.00,,,0.00,663.0,meteohub,2013-02-06 17:19:00,
2013-02-06 12:26:00,53.6,30.4,30.18,WSW,257,0.0,7.0,38,0.00,,,0.00,664.0,meteohub,2013-02-06 17:26:00,
2013-02-06 12:32:00,53.8,31.1,30.19,West,276,8.0,9.0,39,0.00,,,0.00,661.0,meteohub,2013-02-06 17:32:00,
2013-02-06 12:37:00,53.8,31.1,30.19,NW,319,5.0,9.0,39,0.00,,,0.00,656.0,meteohub,2013-02-06 17:37:00,
2013-02-06 12:42:00,53.8,30.6,30.19,West,275,4.0,9.0,38,0.00,,,0.00,654.0,meteohub,2013-02-06 17:42:00,
2013-02-06 12:47:00,53.2,29.5,30.19,West,270,10.0,10.0,37,0.00,,,0.00,652.0,meteohub,2013-02-06 17:47:00,
2013-02-06 12:52:00,52.5,28.9,30.19,West,270,4.0,12.0,37,0.00,,,0.00,647.0,meteohub,2013-02-06 17:52:00,
2013-02-06 12:57:00,52.3,29.3,30.18,ESE,116,4.0,12.0,38,0.00,,,0.00,640.0,meteohub,2013-02-06 17:57:00,
2013-02-06 13:02:00,52.9,31.5,30.18,NNE,16,3.0,11.0,41,0.00,,,0.00,635.0,meteohub,2013-02-06 18:02:00,
2013-02-06 13:07:00,53.8,30.0,30.18,NW,306,5.0,11.0,37,0.00,,,0.00,635.0,meteohub,2013-02-06 18:07:00,
2013-02-06 13:12:00,53.8,29.3,30.18,WSW,239,5.0,9.0,36,0.00,,,0.00,631.0,meteohub,2013-02-06 18:12:00,
2013-02-06 13:17:00,53.8,28.0,30.17,SSW,194,0.0,10.0,34,0.00,,,0.00,628.0,meteohub,2013-02-06 18:17:00,
2013-02-06 13:22:00,53.8,29.3,30.17,South,181,1.0,10.0,36,0.00,,,0.00,622.0,meteohub,2013-02-06 18:22:00,
2013-02-06 13:27:00,54.3,29.8,30.17,NNE,29,2.0,10.0,36,0.00,,,0.00,621.0,meteohub,2013-02-06 18:27:00,
2013-02-06 13:32:00,54.9,29.1,30.17,WSW,249,2.0,7.0,34,0.00,,,0.00,612.0,meteohub,2013-02-06 18:32:00,
2013-02-06 13:38:00,54.9,29.7,30.17,WSW,252,2.0,7.0,35,0.00,,,0.00,601.0,meteohub,2013-02-06 18:38:00,
2013-02-06 13:44:00,55.0,29.1,30.17,SSW,209,2.0,7.0,34,0.00,,,0.00,587.0,meteohub,2013-02-06 18:44:00,
2013-02-06 13:51:00,54.7,29.5,30.17,NNW,332,2.0,7.0,35,0.00,,,0.00,578.0,meteohub,2013-02-06 18:51:00,
2013-02-06 13:57:00,54.7,29.5,30.17,NW,307,3.0,7.0,35,0.00,,,0.00,564.0,meteohub,2013-02-06 18:57:00,
2013-02-06 14:02:00,55.0,30.6,30.17,West,281,1.0,10.0,36,0.00,,,0.00,561.0,meteohub,2013-02-06 19:02:00,
2013-02-06 14:07:00,55.4,30.7,30.17,NE,34,4.0,10.0,36,0.00,,,0.00,547.0,meteohub,2013-02-06 19:07:00,
2013-02-06 14:12:00,55.6,29.7,30.17,NNE,22,4.0,6.0,34,0.00,,,0.00,538.0,meteohub,2013-02-06 19:12:00,
2013-02-06 14:17:00,55.4,30.2,30.17,ESE,107,0.0,5.0,35,0.00,,,0.00,529.0,meteohub,2013-02-06 19:17:00,
2013-02-06 14:22:00,55.6,30.4,30.16,WNW,285,0.0,5.0,35,0.00,,,0.00,519.0,meteohub,2013-02-06 19:22:00,
2013-02-06 14:27:00,55.8,29.1,30.16,West,267,0.0,4.0,33,0.00,,,0.00,503.0,meteohub,2013-02-06 19:27:00,
2013-02-06 14:32:00,55.8,28.4,30.17,WSW,246,2.0,6.0,32,0.00,,,0.00,490.0,meteohub,2013-02-06 19:32:00,
2013-02-06 14:37:00,55.8,28.4,30.17,ENE,73,3.0,6.0,32,0.00,,,0.00,482.0,meteohub,2013-02-06 19:37:00,
2013-02-06 14:42:00,55.6,29.7,30.16,East,86,4.0,9.0,34,0.00,,,0.00,473.0,meteohub,2013-02-06 19:42:00,
2013-02-06 14:47:00,55.8,29.1,30.16,WSW,246,3.0,9.0,33,0.00,,,0.00,459.0,meteohub,2013-02-06 19:47:00,
2013-02-06 14:52:00,55.9,29.3,30.17,West,271,3.0,9.0,33,0.00,,,0.00,443.0,meteohub,2013-02-06 19:52:00,
2013-02-06 14:57:00,55.8,29.1,30.17,WSW,243,5.0,6.0,33,0.00,,,0.00,434.0,meteohub,2013-02-06 19:57:00,
2013-02-06 15:02:00,56.1,28.8,30.17,NW,323,0.0,6.0,32,0.00,,,0.00,422.0,meteohub,2013-02-06 20:02:00,
2013-02-06 15:07:00,56.5,29.1,30.17,West,275,3.0,6.0,32,0.00,,,0.00,406.0,meteohub,2013-02-06 20:07:00,
2013-02-06 15:12:00,56.1,28.8,30.17,NW,308,3.0,7.0,32,0.00,,,0.00,388.0,meteohub,2013-02-06 20:12:00,
2013-02-06 15:19:00,56.1,28.8,30.17,ENE,69,2.0,7.0,32,0.00,,,0.00,373.0,meteohub,2013-02-06 20:19:00,
2013-02-06 15:25:00,55.8,28.4,30.17,SSW,193,0.0,7.0,32,0.00,,,0.00,357.0,meteohub,2013-02-06 20:25:00,
2013-02-06 15:31:00,55.6,28.4,30.17,WNW,286,0.0,4.0,32,0.00,,,0.00,343.0,meteohub,2013-02-06 20:31:00,
2013-02-06 15:37:00,55.4,28.8,30.17,NE,41,2.0,6.0,33,0.00,,,0.00,325.0,meteohub,2013-02-06 20:37:00,
2013-02-06 15:42:00,55.4,28.2,30.17,ESE,115,0.0,7.0,32,0.00,,,0.00,313.0,meteohub,2013-02-06 20:42:00,
2013-02-06 15:47:00,55.6,28.4,30.17,ESE,115,0.0,7.0,32,0.00,,,0.00,285.0,meteohub,2013-02-06 20:47:00,
2013-02-06 15:52:00,55.2,27.3,30.17,West,268,5.0,7.0,31,0.00,,,0.00,179.0,meteohub,2013-02-06 20:52:00,
2013-02-06 15:57:00,54.9,27.0,30.17,NW,313,3.0,7.0,31,0.00,,,0.00,193.0,meteohub,2013-02-06 20:57:00,
2013-02-06 16:02:00,54.7,26.1,30.18,WNW,291,0.0,7.0,30,0.00,,,0.00,156.0,meteohub,2013-02-06 21:02:00,
2013-02-06 16:07:00,54.5,26.6,30.18,West,267,2.0,7.0,31,0.00,,,0.00,49.0,meteohub,2013-02-06 21:07:00,
2013-02-06 16:12:00,54.1,25.7,30.18,NE,45,1.0,7.0,30,0.00,,,0.00,35.0,meteohub,2013-02-06 21:12:00,
2013-02-06 16:17:00,53.8,25.3,30.18,NE,34,0.0,5.0,30,0.00,,,0.00,32.0,meteohub,2013-02-06 21:17:00,
2013-02-06 16:22:00,53.6,25.9,30.18,West,275,0.0,5.0,31,0.00,,,0.00,37.0,meteohub,2013-02-06 21:22:00,
2013-02-06 16:27:00,53.4,25.7,30.18,West,260,0.0,4.0,31,0.00,,,0.00,32.0,meteohub,2013-02-06 21:27:00,
2013-02-06 16:32:00,53.2,25.5,30.19,West,271,1.0,3.0,31,0.00,,,0.00,32.0,meteohub,2013-02-06 21:32:00,
2013-02-06 16:37:00,53.1,26.1,30.19,North,0,2.0,2.0,32,0.00,,,0.00,28.0,meteohub,2013-02-06 21:37:00,
2013-02-06 16:42:00,53.1,26.8,30.19,North,5,0.0,4.0,33,0.00,,,0.00,30.0,meteohub,2013-02-06 21:42:00,
2013-02-06 16:47:00,52.7,27.1,30.19,North,5,0.0,4.0,34,0.00,,,0.00,26.0,meteohub,2013-02-06 21:47:00,
2013-02-06 16:52:00,52.5,26.2,30.19,North,5,1.0,4.0,33,0.00,,,0.00,25.0,meteohub,2013-02-06 21:52:00,
2013-02-06 16:57:00,52.2,25.9,30.19,WNW,290,0.0,4.0,33,0.00,,,0.00,25.0,meteohub,2013-02-06 21:57:00,
2013-02-06 17:02:00,51.8,27.0,30.19,East,86,0.0,4.0,35,0.00,,,0.00,21.0,meteohub,2013-02-06 22:02:00,
2013-02-06 17:07:00,51.1,28.2,30.19,East,86,1.0,4.0,38,0.00,,,0.00,19.0,meteohub,2013-02-06 22:07:00,
2013-02-06 17:12:00,50.5,28.8,30.19,East,86,0.0,3.0,40,0.00,,,0.00,18.0,meteohub,2013-02-06 22:12:00,
2013-02-06 17:17:00,50.0,27.1,30.20,East,86,0.0,3.0,38,0.00,,,0.00,16.0,meteohub,2013-02-06 22:17:00,
2013-02-06 17:23:00,49.3,28.8,30.20,East,86,0.0,2.0,42,0.00,,,0.00,14.0,meteohub,2013-02-06 22:23:00,
2013-02-06 17:29:00,48.4,30.0,30.20,East,86,1.0,1.0,46,0.00,,,0.00,11.0,meteohub,2013-02-06 22:29:00,
2013-02-06 17:35:00,47.3,29.1,30.21,East,86,0.0,2.0,46,0.00,,,0.00,9.0,meteohub,2013-02-06 22:35:00,
2013-02-06 17:41:00,46.4,29.7,30.21,East,86,0.0,2.0,49,0.00,,,0.00,5.0,meteohub,2013-02-06 22:41:00,
2013-02-06 17:47:00,45.7,29.1,30.21,East,86,1.0,2.0,49,0.00,,,0.00,0.0,meteohub,2013-02-06 22:47:00,
2013-02-06 17:53:00,44.8,29.1,30.21,East,86,2.0,2.0,51,0.00,,,0.00,0.0,meteohub,2013-02-06 22:53:00,
2013-02-06 18:00:00,43.9,28.2,30.22,East,86,1.0,2.0,51,0.00,,,0.00,0.0,meteohub,2013-02-06 23:00:00,
2013-02-06 18:06:00,43.3,29.1,30.22,East,86,0.0,3.0,54,0.00,,,0.00,0.0,meteohub,2013-02-06 23:06:00,
2013-02-06 18:12:00,42.8,29.5,30.23,East,86,0.0,2.0,56,0.00,,,0.00,0.0,meteohub,2013-02-06 23:12:00,
2013-02-06 18:17:00,42.1,28.4,30.23,East,86,0.0,0.0,55,0.00,,,0.00,0.0,meteohub,2013-02-06 23:17:00,
2013-02-06 18:22:00,41.7,29.3,30.23,East,86,0.0,0.0,58,0.00,,,0.00,0.0,meteohub,2013-02-06 23:22:00,
2013-02-06 18:27:00,41.2,28.4,30.24,East,86,0.0,0.0,57,0.00,,,0.00,0.0,meteohub,2013-02-06 23:27:00,
2013-02-06 18:32:00,40.6,29.5,30.24,East,86,0.0,0.0,61,0.00,,,0.00,0.0,meteohub,2013-02-06 23:32:00,
2013-02-06 18:37:00,40.1,28.6,30.25,East,86,0.0,0.0,60,0.00,,,0.00,0.0,meteohub,2013-02-06 23:37:00,
2013-02-06 18:42:00,39.6,28.4,30.25,East,86,0.0,0.0,61,0.00,,,0.00,0.0,meteohub,2013-02-06 23:42:00,
2013-02-06 18:47:00,39.2,28.8,30.25,East,86,0.0,0.0,63,0.00,,,0.00,0.0,meteohub,2013-02-06 23:47:00,
2013-02-06 18:52:00,38.7,28.2,30.25,East,86,0.0,0.0,63,0.00,,,0.00,0.0,meteohub,2013-02-06 23:52:00,
2013-02-06 18:57:00,38.3,28.6,30.25,East,86,0.0,0.0,65,0.00,,,0.00,0.0,meteohub,2013-02-06 23:57:00,
2013-02-06 19:02:00,37.9,28.4,30.25,East,86,0.0,0.0,65,0.00,,,0.00,0.0,meteohub,2013-02-07 00:02:00,
2013-02-06 19:07:00,37.6,28.4,30.25,ENE,67,0.0,0.0,66,0.00,,,0.00,0.0,meteohub,2013-02-07 00:07:00,
2013-02-06 19:12:00,37.2,28.0,30.25,ENE,67,0.0,5.0,66,0.00,,,0.00,0.0,meteohub,2013-02-07 00:12:00,
2013-02-06 19:17:00,36.9,28.0,30.26,ENE,67,0.0,5.0,67,0.00,,,0.00,0.0,meteohub,2013-02-07 00:17:00,
2013-02-06 19:22:00,36.5,28.4,30.26,ENE,67,0.0,2.0,69,0.00,,,0.00,0.0,meteohub,2013-02-07 00:22:00,
2013-02-06 19:27:00,36.0,27.9,30.27,ENE,67,0.0,0.0,69,0.00,,,0.00,0.0,meteohub,2013-02-07 00:27:00,
2013-02-06 19:32:00,35.6,27.5,30.27,ENE,67,0.0,0.0,69,0.00,,,0.00,0.0,meteohub,2013-02-07 00:32:00,
2013-02-06 19:37:00,35.2,28.0,30.27,ENE,67,0.0,0.0,72,0.00,,,0.00,0.0,meteohub,2013-02-07 00:37:00,
2013-02-06 19:42:00,34.9,28.0,30.28,ENE,67,0.0,1.0,73,0.00,,,0.00,0.0,meteohub,2013-02-07 00:42:00,
2013-02-06 19:47:00,34.5,27.7,30.28,ENE,67,0.0,1.0,73,0.00,,,0.00,0.0,meteohub,2013-02-07 00:47:00,
2013-02-06 19:52:00,34.2,27.1,30.28,ENE,68,0.0,1.0,72,0.00,,,0.00,0.0,meteohub,2013-02-07 00:52:00,
2013-02-06 19:57:00,33.8,27.3,30.28,ENE,68,0.0,0.0,74,0.00,,,0.00,0.0,meteohub,2013-02-07 00:57:00,
2013-02-06 20:02:00,33.6,27.1,30.28,ENE,67,0.0,0.0,74,0.00,,,0.00,0.0,meteohub,2013-02-07 01:02:00,
2013-02-06 20:07:00,33.3,27.1,30.28,ENE,68,0.0,0.0,75,0.00,,,0.00,0.0,meteohub,2013-02-07 01:07:00,
2013-02-06 20:12:00,33.1,27.3,30.29,ENE,67,0.0,0.0,76,0.00,,,0.00,0.0,meteohub,2013-02-07 01:12:00,
2013-02-06 20:17:00,32.7,27.1,30.29,ENE,68,0.0,0.0,77,0.00,,,0.00,0.0,meteohub,2013-02-07 01:17:00,
2013-02-06 20:22:00,32.4,27.1,30.29,ENE,68,0.0,0.0,78,0.00,,,0.00,0.0,meteohub,2013-02-07 01:22:00,
2013-02-06 20:27:00,32.2,26.8,30.29,ENE,68,0.0,0.0,77,0.00,,,0.00,0.0,meteohub,2013-02-07 01:27:00,
2013-02-06 20:32:00,32.0,26.8,30.29,ENE,68,0.0,0.0,78,0.00,,,0.00,0.0,meteohub,2013-02-07 01:32:00,
2013-02-06 20:37:00,31.6,26.4,30.30,ENE,68,0.0,0.0,78,0.00,,,0.00,0.0,meteohub,2013-02-07 01:37:00,
2013-02-06 20:42:00,31.3,26.1,30.30,ENE,67,0.0,0.0,78,0.00,,,0.00,0.0,meteohub,2013-02-07 01:42:00,
2013-02-06 20:47:00,31.1,26.2,30.30,ENE,68,0.0,0.0,79,0.00,,,0.00,0.0,meteohub,2013-02-07 01:47:00,
2013-02-06 20:52:00,30.9,26.4,30.30,ENE,68,0.0,0.0,80,0.00,,,0.00,0.0,meteohub,2013-02-07 01:52:00,
2013-02-06 20:57:00,30.6,25.7,30.31,ENE,70,3.0,0.0,79,0.00,,,0.00,0.0,meteohub,2013-02-07 01:57:00,
2013-02-06 21:02:00,30.4,25.5,30.32,ENE,78,0.0,5.0,79,0.00,,,0.00,0.0,meteohub,2013-02-07 02:02:00,
2013-02-06 21:08:00,30.2,25.3,30.32,WNW,296,2.0,5.0,79,0.00,,,0.00,0.0,meteohub,2013-02-07 02:08:00,
2013-02-06 21:14:00,30.2,25.7,30.32,WNW,303,0.0,5.0,80,0.00,,,0.00,0.0,meteohub,2013-02-07 02:14:00,
2013-02-06 21:20:00,30.2,25.7,30.32,WNW,303,1.0,3.0,80,0.00,,,0.00,0.0,meteohub,2013-02-07 02:20:00,
2013-02-06 21:26:00,30.2,25.7,30.33,West,266,0.0,2.0,80,0.00,,,0.00,0.0,meteohub,2013-02-07 02:26:00,
2013-02-06 21:32:00,30.2,25.3,30.33,West,266,0.0,3.0,79,0.00,,,0.00,0.0,meteohub,2013-02-07 02:32:00,
2013-02-06 21:37:00,30.2,25.7,30.33,West,265,0.0,3.0,80,0.00,,,0.00,0.0,meteohub,2013-02-07 02:37:00,
2013-02-06 21:42:00,30.0,25.5,30.33,ENE,59,0.0,3.0,80,0.00,,,0.00,0.0,meteohub,2013-02-07 02:42:00,
2013-02-06 21:47:00,29.8,25.3,30.33,ENE,59,0.0,3.0,80,0.00,,,0.00,0.0,meteohub,2013-02-07 02:47:00,
2013-02-06 21:52:00,29.7,25.2,30.33,East,97,0.0,3.0,80,0.00,,,0.00,0.0,meteohub,2013-02-07 02:52:00,
2013-02-06 21:57:00,29.7,25.2,30.33,East,97,0.0,3.0,80,0.00,,,0.00,0.0,meteohub,2013-02-07 02:57:00,
2013-02-06 22:02:00,29.5,25.2,30.33,East,97,0.0,3.0,81,0.00,,,0.00,0.0,meteohub,2013-02-07 03:02:00,
2013-02-06 22:07:00,29.3,25.0,30.32,East,97,0.0,3.0,81,0.00,,,0.00,0.0,meteohub,2013-02-07 03:07:00,
2013-02-06 22:12:00,29.3,25.0,30.33,East,97,0.0,2.0,81,0.00,,,0.00,0.0,meteohub,2013-02-07 03:12:00,
2013-02-06 22:17:00,29.3,25.3,30.33,East,97,0.0,2.0,82,0.00,,,0.00,0.0,meteohub,2013-02-07 03:17:00,
2013-02-06 22:22:00,29.1,25.2,30.32,East,97,1.0,2.0,82,0.00,,,0.00,0.0,meteohub,2013-02-07 03:22:00,
2013-02-06 22:27:00,28.9,25.0,30.33,East,97,3.0,3.0,82,0.00,,,0.00,0.0,meteohub,2013-02-07 03:27:00,
2013-02-06 22:32:00,28.9,25.0,30.33,East,97,0.0,3.0,82,0.00,,,0.00,0.0,meteohub,2013-02-07 03:32:00,
2013-02-06 22:37:00,28.9,25.0,30.33,East,97,0.0,3.0,82,0.00,,,0.00,0.0,meteohub,2013-02-07 03:37:00,
2013-02-06 22:42:00,28.8,24.8,30.33,East,97,0.0,3.0,82,0.00,,,0.00,0.0,meteohub,2013-02-07 03:42:00,
2013-02-06 22:47:00,28.8,24.8,30.33,East,97,0.0,3.0,82,0.00,,,0.00,0.0,meteohub,2013-02-07 03:47:00,
2013-02-06 22:54:00,28.6,24.6,30.33,East,97,0.0,1.0,82,0.00,,,0.00,0.0,meteohub,2013-02-07 03:54:00,
2013-02-06 23:00:00,28.8,24.8,30.33,East,97,1.0,2.0,82,0.00,,,0.00,0.0,meteohub,2013-02-07 04:00:00,
2013-02-06 23:06:00,28.8,24.8,30.32,East,97,0.0,2.0,82,0.00,,,0.00,0.0,meteohub,2013-02-07 04:06:00,
2013-02-06 23:12:00,28.8,25.2,30.33,East,97,1.0,2.0,83,0.00,,,0.00,0.0,meteohub,2013-02-07 04:12:00,
2013-02-06 23:17:00,28.8,25.2,30.33,East,97,0.0,2.0,83,0.00,,,0.00,0.0,meteohub,2013-02-07 04:17:00,
2013-02-06 23:22:00,28.8,25.3,30.34,East,97,1.0,2.0,84,0.00,,,0.00,0.0,meteohub,2013-02-07 04:22:00,
2013-02-06 23:27:00,28.8,25.2,30.34,East,97,0.0,2.0,83,0.00,,,0.00,0.0,meteohub,2013-02-07 04:27:00,
2013-02-06 23:32:00,28.8,25.2,30.35,East,97,0.0,2.0,83,0.00,,,0.00,0.0,meteohub,2013-02-07 04:32:00,
2013-02-06 23:37:00,28.8,25.2,30.35,East,97,0.0,2.0,83,0.00,,,0.00,0.0,meteohub,2013-02-07 04:37:00,
2013-02-06 23:42:00,28.6,25.0,30.35,East,97,1.0,2.0,83,0.00,,,0.00,0.0,meteohub,2013-02-07 04:42:00,
2013-02-06 23:47:00,28.6,25.2,30.35,East,97,0.0,2.0,84,0.00,,,0.00,0.0,meteohub,2013-02-07 04:47:00,
2013-02-06 23:52:00,28.6,25.2,30.35,East,97,2.0,2.0,84,0.00,,,0.00,0.0,meteohub,2013-02-07 04:52:00,
2013-02-06 23:57:00,28.6,25.2,30.36,East,96,0.0,3.0,84,0.00,,,0.00,0.0,meteohub,2013-02-07 04:57:00,